This is the latest recevied weather packets stored in our database for station/object KI5GCD-13. If no packets are shown the sender has not sent any weather packets the latest 10 day(s).
| Time | Temp. | Humidity | Pressure | Rain* | Wind** | Luminosity | Snow |
|---|---|---|---|---|---|---|---|
| 1777325687 | 27.22° C | 63% | 1000.9 hPa | 0 mm | 0.45 m/s, 250° | - | - |
| 1777325387 | 27.22° C | 69% | 1001 hPa | 0 mm | 0 m/s | - | - |
| 1777325088 | 27.22° C | 65% | 1001 hPa | 0 mm | 0.89 m/s, 172° | - | - |
| 1777324787 | 27.78° C | 64% | 1001.3 hPa | 0 mm | 0.45 m/s, 193° | - | - |
| 1777324487 | 27.78° C | 62% | 1001.1 hPa | 0 mm | 0.89 m/s, 193° | - | - |
| 1777324187 | 28.89° C | 60% | 1001.1 hPa | 0 mm | 1.34 m/s, 181° | - | - |
| 1777323887 | 28.89° C | 61% | 1001.1 hPa | 0 mm | 0.45 m/s, 259° | - | - |
| 1777323587 | 30° C | 56% | 1001.4 hPa | 0 mm | 1.79 m/s, 272° | - | - |
| 1777323288 | 30° C | 57% | 1001.2 hPa | 0 mm | 1.34 m/s, 233° | - | - |
| 1777322987 | 30° C | 62% | 1001.4 hPa | 0 mm | 0.45 m/s, 228° | - | - |
| 1777322687 | 30° C | 60% | 1001.3 hPa | 0 mm | 0.89 m/s, 256° | - | - |
| 1777322387 | 30° C | 59% | 1001.7 hPa | 0 mm | 2.24 m/s, 232° | - | - |
| 1777322087 | 29.44° C | 58% | 1001.6 hPa | 0 mm | 3.58 m/s, 283° | - | - |
| 1777321787 | 28.89° C | 61% | 1001.9 hPa | 0 mm | 1.34 m/s, 325° | - | - |
| 1777321487 | 29.44° C | 63% | 1002 hPa | 0 mm | 0.89 m/s, 210° | - | - |
| 1777321187 | 30° C | 67% | 1001.6 hPa | 0 mm | 0.89 m/s, 241° | - | - |
| 1777320888 | 29.44° C | 67% | 1001.7 hPa | 0 mm | 0.89 m/s, 168° | - | - |
| 1777320587 | 29.44° C | 63% | 1001.7 hPa | 0 mm | 2.68 m/s, 227° | - | - |
| 1777320287 | 29.44° C | 63% | 1001.7 hPa | 0 mm | 2.68 m/s, 182° | - | - |
| 1777319987 | 29.44° C | 62% | 1001.9 hPa | 0 mm | 1.34 m/s, 332° | - | - |
| 1777319687 | 29.44° C | 63% | 1002 hPa | 0 mm | 1.79 m/s, 256° | - | - |
| 1777319387 | 29.44° C | 63% | 1001.7 hPa | 0 mm | 4.02 m/s, 196° | - | - |
| 1777319087 | 29.44° C | 65% | 1001.4 hPa | 0 mm | 0.45 m/s, 230° | - | - |
| 1777318787 | 29.44° C | 66% | 1001.5 hPa | 0 mm | 1.79 m/s, 260° | - | - |
| 1777318487 | 28.89° C | 64% | 1001.7 hPa | 0 mm | 1.34 m/s, 241° | - | - |
* Rain latest hour (hover to see other rain measurements)
** Current wind speed in m/s (hover to see current wind gust speed)